Weather History for Nucla Hopkins Field Airport, CO

Change the Weather History Date:

Sunday, June 29, 2014

  Actual Average Record
Temperature  
Mean Temperature 75 °F -  
Max Temperature 95 °F - - ()
Min Temperature 55 °F - - ()
Cooling Degree Days 10    
Growing Degree Days 25 (Base 50)    
Moisture  
Dew Point 27 °F    
Average Humidity 18    
Maximum Humidity 36    
Minimum Humidity 8    
Precipitation  
Precipitation 0.00 in - - ()
Sea Level Pressure  
Sea Level Pressure 30.12 in    
Wind  
Wind Speed 9 mph (NW)    
Max Wind Speed 18 mph    
Max Gust Speed 32 mph    
Visibility 10 miles    
Events      
T = Trace of Precipitation, MM = Missing Value Source: NWS Daily Summary

Daily Weather History Graph

Daily Weather History Graph

Search for Another Location

Airport:

Trip Planner

Search our weather history database for the weather conditions in past years. The results will help you decide how hot, cold, wet, or windy it might be!

Date:

Astronomy

Jun. 29, 2014 Rise Set
Actual Time 5:53 AM MDT 8:41 PM MDT
Civil Twilight 5:22 AM MDT 9:13 PM MDT
Nautical Twilight 4:42 AM MDT 9:52 PM MDT
Astronomical Twilight 3:57 AM MDT 10:37 PM MDT
Moon 8:12 AM MDT (6/29) 10:06 PM MDT (6/29)
Length of Visible Light 15h 50m
Length of Day
14h 47m
Waxing Crescent, 5% of the Moon is Illuminated
Jun 29
Waxing Crescent
Jul 5
First Quarter
Jul 12
Full
Jul 18
Last Quarter
Jul 26
New

Hourly Weather History & Observations

Time (MDT) Temp. Dew Point Humidity Pressure Visibility Wind Dir Wind Speed Gust Speed Precip Events Conditions
12:15 AM 64.4 °F 26.6 °F 24% 30.11 in 10.0 mi East 12.7 mph - N/A   Clear
12:55 AM 64.4 °F 26.6 °F 24% 30.11 in 10.0 mi ESE 12.7 mph - N/A   Clear
1:15 AM 64.4 °F 26.6 °F 24% 30.11 in 10.0 mi East 13.8 mph 20.7 mph N/A   Clear
1:35 AM 62.6 °F 26.6 °F 26% 30.11 in 10.0 mi East 10.4 mph - N/A   Clear
1:55 AM 62.6 °F 24.8 °F 24% 30.10 in 10.0 mi East 10.4 mph - N/A   Clear
2:15 AM 62.6 °F 24.8 °F 24% 30.11 in 10.0 mi ESE 5.8 mph - N/A   Clear
2:35 AM 59.0 °F 26.6 °F 29% 30.11 in 10.0 mi SE 5.8 mph - N/A   Clear
2:55 AM 57.2 °F 26.6 °F 31% 30.11 in 10.0 mi ESE 5.8 mph - N/A   Clear
3:15 AM 57.2 °F 26.6 °F 31% 30.11 in 10.0 mi East 3.5 mph - N/A   Clear
3:35 AM 57.2 °F 26.6 °F 31% 30.12 in 10.0 mi ENE 6.9 mph - N/A   Clear
3:55 AM 59.0 °F 26.6 °F 29% 30.12 in 10.0 mi ENE 4.6 mph - N/A   Clear
4:15 AM 55.4 °F 26.6 °F 33% 30.12 in 10.0 mi SE 3.5 mph - N/A   Clear
4:35 AM 55.4 °F 26.6 °F 33% 30.12 in 10.0 mi ESE 9.2 mph - N/A   Clear
4:55 AM 57.2 °F 28.4 °F 33% 30.12 in 10.0 mi ESE 11.5 mph - N/A   Clear
5:15 AM 57.2 °F 28.4 °F 33% 30.13 in 10.0 mi SE 11.5 mph - N/A   Clear
5:35 AM 55.4 °F 28.4 °F 36% 30.13 in 10.0 mi ESE 11.5 mph - N/A   Clear
5:55 AM 55.4 °F 28.4 °F 36% 30.14 in 10.0 mi ESE 8.1 mph - N/A   Clear
6:15 AM 57.2 °F 28.4 °F 33% 30.14 in 10.0 mi Calm Calm - N/A   Clear
6:35 AM 57.2 °F 28.4 °F 33% 30.16 in 10.0 mi ESE 4.6 mph - N/A   Clear
6:55 AM 60.8 °F 30.2 °F 31% 30.16 in 10.0 mi ESE 4.6 mph - N/A   Clear
7:15 AM 60.8 °F 30.2 °F 31% 30.17 in 10.0 mi ESE 4.6 mph - N/A   Clear
7:35 AM 60.8 °F 30.2 °F 31% 30.17 in 10.0 mi ESE 3.5 mph - N/A   Clear
7:55 AM 64.4 °F 32.0 °F 30% 30.18 in 10.0 mi ESE 3.5 mph - N/A   Clear
8:15 AM 68.0 °F 32.0 °F 26% 30.19 in 10.0 mi East 3.5 mph - N/A   Clear
8:35 AM 69.8 °F 32.0 °F 25% 30.19 in 10.0 mi East 4.6 mph - N/A   Clear
8:55 AM 71.6 °F 32.0 °F 23% 30.19 in 10.0 mi Calm Calm - N/A   Clear
9:15 AM 75.2 °F 35.6 °F 24% 30.19 in 10.0 mi North 3.5 mph - N/A   Clear
9:35 AM 77.0 °F 32.0 °F 19% 30.18 in 10.0 mi Calm Calm - N/A   Clear
9:55 AM 78.8 °F 33.8 °F 20% 30.18 in 10.0 mi North 4.6 mph - N/A   Clear
10:15 AM 80.6 °F 32.0 °F 17% 30.18 in 10.0 mi Calm Calm - N/A   Clear
10:35 AM 82.4 °F 30.2 °F 15% 30.17 in 10.0 mi North 6.9 mph - N/A   Clear
10:55 AM 82.4 °F 30.2 °F 15% 30.17 in 10.0 mi NNW 4.6 mph - N/A   Clear
11:15 AM 86.0 °F 28.4 °F 12% 30.17 in 10.0 mi WNW 5.8 mph - N/A   Clear
11:35 AM 86.0 °F 28.4 °F 12% 30.17 in 10.0 mi WNW 8.1 mph - N/A   Clear
11:55 AM 87.8 °F 26.6 °F 11% 30.17 in 10.0 mi WSW 13.8 mph 18.4 mph N/A   Clear
12:15 PM 89.6 °F 26.6 °F 10% 30.17 in 10.0 mi WNW 8.1 mph 20.7 mph N/A   Clear
12:35 PM 89.6 °F 26.6 °F 10% 30.16 in 10.0 mi West 10.4 mph 24.2 mph N/A   Clear
12:55 PM 89.6 °F 26.6 °F 10% 30.15 in 10.0 mi WSW 15.0 mph 23.0 mph N/A   Clear
1:15 PM 91.4 °F 24.8 °F 9% 30.15 in 10.0 mi West 17.3 mph 28.8 mph N/A   Clear
1:35 PM 91.4 °F 24.8 °F 9% 30.14 in 10.0 mi West 9.2 mph 17.3 mph N/A   Clear
1:55 PM 91.4 °F 24.8 °F 9% 30.13 in 10.0 mi West 15.0 mph 26.5 mph N/A   Clear
2:15 PM 93.2 °F 24.8 °F 9% 30.13 in 10.0 mi WSW 18.4 mph 32.2 mph N/A   Clear
2:35 PM 93.2 °F 23.0 °F 8% 30.12 in 10.0 mi WNW 9.2 mph 23.0 mph N/A   Clear
2:55 PM 91.4 °F 24.8 °F 9% 30.11 in 10.0 mi West 11.5 mph 27.6 mph N/A   Clear
3:15 PM 95.0 °F 24.8 °F 8% 30.11 in 10.0 mi WSW 16.1 mph 25.3 mph N/A   Clear
3:35 PM 93.2 °F 23.0 °F 8% 30.11 in 10.0 mi WNW 5.8 mph 19.6 mph N/A   Clear
3:55 PM 93.2 °F 24.8 °F 9% 30.10 in 10.0 mi West 6.9 mph 21.9 mph N/A   Clear
4:15 PM 93.2 °F 24.8 °F 9% 30.09 in 10.0 mi WNW 9.2 mph 24.2 mph N/A   Clear
4:35 PM 93.2 °F 23.0 °F 8% 30.09 in 10.0 mi NW 8.1 mph - N/A   Clear
4:55 PM 95.0 °F 24.8 °F 8% 30.08 in 10.0 mi West 10.4 mph 23.0 mph N/A   Clear
5:15 PM 95.0 °F 24.8 °F 8% 30.08 in 10.0 mi WSW 11.5 mph 20.7 mph N/A   Clear
5:35 PM 93.2 °F 24.8 °F 9% 30.07 in 10.0 mi West 10.4 mph - N/A   Clear
5:55 PM 93.2 °F 23.0 °F 8% 30.06 in 10.0 mi West 9.2 mph - N/A   Clear
6:15 PM 93.2 °F 24.8 °F 9% 30.05 in 10.0 mi WNW 4.6 mph - N/A   Clear
6:35 PM 93.2 °F 28.4 °F 10% 30.05 in 10.0 mi NW 8.1 mph - N/A   Clear
6:55 PM 91.4 °F 23.0 °F 8% 30.05 in 10.0 mi WNW 10.4 mph 20.7 mph N/A   Clear
7:15 PM 91.4 °F 23.0 °F 8% 30.05 in 10.0 mi WNW 8.1 mph 17.3 mph N/A   Clear
7:35 PM 91.4 °F 23.0 °F 8% 30.06 in 10.0 mi West 9.2 mph - N/A   Clear
7:55 PM 89.6 °F 23.0 °F 9% 30.06 in 10.0 mi NW 9.2 mph - N/A   Clear
8:15 PM 87.8 °F 23.0 °F 9% 30.06 in 10.0 mi WNW 8.1 mph - N/A   Clear
8:35 PM 84.2 °F 23.0 °F 11% 30.06 in 10.0 mi NW 6.9 mph - N/A   Clear
8:55 PM 82.4 °F 23.0 °F 11% 30.07 in 10.0 mi WNW 5.8 mph - N/A   Clear
9:15 PM 82.4 °F 23.0 °F 11% 30.07 in 10.0 mi WNW 4.6 mph - N/A   Clear
9:35 PM 82.4 °F 23.0 °F 11% 30.08 in 10.0 mi WNW 3.5 mph - N/A   Clear
9:55 PM 80.6 °F 23.0 °F 12% 30.08 in 10.0 mi Calm Calm - N/A   Clear
10:15 PM 75.2 °F 24.8 °F 15% 30.10 in 10.0 mi East 10.4 mph - N/A   Clear
10:35 PM 73.4 °F 26.6 °F 18% 30.10 in 10.0 mi East 9.2 mph - N/A   Clear
10:55 PM 71.6 °F 26.6 °F 19% 30.10 in 10.0 mi East 8.1 mph - N/A   Clear
11:15 PM 73.4 °F 26.6 °F 18% 30.10 in 10.0 mi East 10.4 mph - N/A   Clear
11:35 PM 73.4 °F 26.6 °F 18% 30.10 in 10.0 mi East 11.5 mph - N/A   Clear